DW7601 San Vito IT current weather conditions

sailwx.info

Wind from 315 at 1 knots gusting 5

Air temperature 23.3° C
Dewpoint 17.3° C

Last reported at 2016-Jul-24 23:51 UTC.
Time now 2016-Jul-25 00:19 UTC

Location: N 39°27' E 009°32'.
View on Google Maps.

See reports from other nearby stations

  
Tides and Currents Weather Stations Pressure Air Temp Water Temp Dewpoint Dewpoint Depression Visibility Wind Speed Wind Dir Waves Ship Positions
date/time (UTC)wind fromknots sea level pressurealtimeterstation pressurevisibilityair tempwater tempwave heightnotes
2016-Jul-24 23:51 315 1 gusting 5 23.3
2016-Jul-24 23:41 326 1 gusting 4 23.3
2016-Jul-24 23:31 325 0 gusting 4 23.3
2016-Jul-24 23:21 350 0 gusting 2 23.3
2016-Jul-24 23:11 358 1 gusting 4 23.3
2016-Jul-24 23:01 019 1 gusting 4 23.3
2016-Jul-24 22:51 106 1 gusting 5 23.3
2016-Jul-24 22:41 033 1 gusting 5 23.3
2016-Jul-24 22:31 001 1 gusting 5 23.3
2016-Jul-24 22:21 349 0 gusting 1 23.3
2016-Jul-24 22:11 025 0 gusting 1 23.3
2016-Jul-24 22:01 017 1 gusting 4 23.3
2016-Jul-24 21:51 011 1 gusting 4 23.9
2016-Jul-24 21:41 014 1 gusting 6 23.9
2016-Jul-24 21:31 326 1 gusting 5 23.9
2016-Jul-24 21:21 022 2 gusting 4 23.9
2016-Jul-24 21:11 057 2 gusting 5 23.9
2016-Jul-24 21:01 24.4
2016-Jul-24 20:51 325 1 gusting 2 24.4
2016-Jul-24 20:41 022 1 gusting 4 24.4
2016-Jul-24 20:31 033 1 gusting 4 24.4
2016-Jul-24 20:21 003 4 gusting 5 24.4
2016-Jul-24 20:11 356 2 gusting 5 24.4
2016-Jul-24 20:01 022 1 gusting 2 24.4
2016-Jul-24 19:51 346 1 gusting 4 25.0
2016-Jul-24 19:41 338 1 gusting 4 25.0
2016-Jul-24 19:31 350 2 gusting 5 25.0
2016-Jul-24 19:21 057 2 gusting 5 25.6
2016-Jul-24 19:11 326 4 gusting 6 25.6
2016-Jul-24 19:01 259 2 gusting 5 25.6
2016-Jul-24 18:51 043 1 gusting 4 26.1
2016-Jul-24 18:41 015 2 gusting 5 26.1
2016-Jul-24 18:31 011 2 gusting 7 26.1
2016-Jul-24 18:21 350 2 gusting 6 26.7
2016-Jul-24 18:11 338 4 gusting 6 26.7
2016-Jul-24 18:01 359 2 gusting 6 27.2
2016-Jul-24 17:51 069 1 gusting 4 27.2
2016-Jul-24 17:41 338 1 gusting 4 27.8
2016-Jul-24 17:31 302 1 gusting 4 27.8
2016-Jul-24 17:21 348 2 gusting 5 28.3
2016-Jul-24 17:11 022 4 gusting 7 28.9
2016-Jul-24 17:01 128 4 gusting 6 29.4
2016-Jul-24 16:51 022 4 gusting 8 30.6
2016-Jul-24 16:41 013 4 gusting 6 31.7
2016-Jul-24 16:31 295 4 gusting 12 31.7
2016-Jul-24 16:21 316 4 gusting 12 32.2
2016-Jul-24 16:11 291 4 gusting 6 32.2
2016-Jul-24 16:01 292 4 gusting 7 32.8
2016-Jul-24 15:51 327 4 gusting 6 32.8
2016-Jul-24 15:41 258 5 gusting 10 32.8
2016-Jul-24 15:31 281 5 gusting 12 32.2
2016-Jul-24 15:21 280 4 gusting 8 32.8
2016-Jul-24 15:11 223 5 gusting 7 33.9
2016-Jul-24 15:01 304 5 gusting 7 34.4
2016-Jul-24 14:51 260 5 gusting 7 34.4
2016-Jul-24 14:41 022 5 gusting 14 35.6
2016-Jul-24 14:31 283 6 gusting 12 35.0
2016-Jul-24 14:21 292 6 gusting 7 35.0
2016-Jul-24 14:11 304 6 gusting 8 35.6
2016-Jul-24 14:01 304 5 gusting 10 35.6
2016-Jul-24 13:51 258 5 gusting 10 35.6
2016-Jul-24 13:41 216 5 gusting 10 35.6
2016-Jul-24 13:31 314 4 gusting 7 33.9
2016-Jul-24 13:21 180 2 gusting 6 34.4
2016-Jul-24 13:11 147 2 gusting 6 33.3
2016-Jul-24 13:01 158 2 gusting 6 33.3
2016-Jul-24 12:51 158 2 gusting 6 32.8
2016-Jul-24 12:41 158 2 gusting 7 32.8
2016-Jul-24 12:31 169 4 gusting 6 31.1
2016-Jul-24 12:21 124 4 gusting 5 30.6
2016-Jul-24 12:11 135 4 gusting 6 30.6
2016-Jul-24 12:01 147 5 gusting 8 31.1
2016-Jul-24 11:51 147 4 gusting 7 32.8
2016-Jul-24 11:41 315 2 gusting 6 31.7
2016-Jul-24 11:31 215 2 gusting 6 31.1
2016-Jul-24 11:21 157 4 gusting 7 32.2
2016-Jul-24 11:11 158 4 gusting 7 31.7
2016-Jul-24 11:01 124 4 gusting 6 32.2
2016-Jul-24 10:51 204 2 gusting 6 33.3
2016-Jul-24 10:41 193 1 gusting 6 33.3
2016-Jul-24 10:31 195 2 gusting 4 33.3
2016-Jul-24 10:21 202 2 gusting 5 33.3
2016-Jul-24 10:11 282 4 gusting 7 33.3
2016-Jul-24 10:01 202 2 gusting 8 33.3
2016-Jul-24 09:51 294 2 gusting 8 32.8
2016-Jul-24 09:41 303 4 gusting 8 32.8
2016-Jul-24 09:31 034 4 gusting 6 32.8
2016-Jul-24 09:21 258 4 gusting 6 32.2
2016-Jul-24 09:11 102 4 gusting 7 31.7
2016-Jul-24 09:01 336 4 gusting 7 31.7
2016-Jul-24 08:51 057 4 gusting 6 31.1
2016-Jul-24 08:41 068 4 gusting 6 30.6
2016-Jul-24 08:31 069 4 gusting 6 30.0
2016-Jul-24 08:21 022 4 gusting 6 30.0
2016-Jul-24 08:11 066 5 gusting 6 29.4
2016-Jul-24 08:01 056 4 gusting 6 29.4
2016-Jul-24 07:51 079 4 gusting 7 28.9
2016-Jul-24 07:41 068 5 gusting 6 28.3
2016-Jul-24 07:31 068 4 gusting 6 27.8
2016-Jul-24 07:21 056 4 gusting 6 27.2
2016-Jul-24 07:11 047 4 gusting 6 29.4
2016-Jul-24 07:01 034 4 gusting 6 29.4
2016-Jul-24 06:51 056 4 gusting 7 29.4
2016-Jul-24 06:41 044 4 gusting 7 29.4
2016-Jul-24 06:31 055 4 gusting 6 29.4
2016-Jul-24 06:21 024 4 gusting 7 29.4
2016-Jul-24 06:11 068 4 gusting 6 29.4
2016-Jul-24 06:01 022 2 gusting 5 29.4
2016-Jul-24 05:51 022 2 gusting 5 29.4
2016-Jul-24 05:41 068 2 gusting 6 29.4
2016-Jul-24 05:31 081 3 gusting 6 29.4
2016-Jul-24 05:21 045 4 gusting 6 29.4
2016-Jul-24 05:11 010 4 gusting 6 29.4
2016-Jul-24 05:01 056 4 gusting 7 29.4
2016-Jul-24 04:51 034 4 gusting 6 29.4
2016-Jul-24 04:41 068 4 gusting 6 29.4
2016-Jul-24 04:31 022 4 gusting 6 29.4
2016-Jul-24 04:21 023 2 gusting 4 29.4
2016-Jul-24 04:11 034 2 gusting 4 29.4
2016-Jul-24 04:01 025 2 gusting 5 29.4
2016-Jul-24 03:51 013 2 gusting 6 29.4
2016-Jul-24 03:41 010 4 gusting 6 29.4
2016-Jul-24 03:31 011 2 gusting 6 29.4
2016-Jul-24 03:21 171 1 gusting 6 29.4
2016-Jul-24 03:11 033 1 gusting 6 29.4
2016-Jul-24 03:01 101 2 gusting 5 29.4
2016-Jul-24 02:51 011 0 gusting 1 29.4
2016-Jul-24 02:41 352 2 gusting 5 29.4
2016-Jul-24 02:31 045 2 gusting 6 29.4
2016-Jul-24 02:21 034 2 gusting 6 29.4
2016-Jul-24 02:11 068 1 gusting 4 29.4
2016-Jul-24 02:01 033 0 gusting 4 29.4
2016-Jul-24 01:51 018 0 gusting 2 29.4
2016-Jul-24 01:41 057 1 gusting 4 29.4
2016-Jul-24 01:31 033 2 gusting 5 29.4
2016-Jul-24 01:21 025 2 gusting 6 29.4
2016-Jul-24 01:11 045 2 gusting 5 29.4
2016-Jul-24 01:01 057 2 gusting 4 29.4
2016-Jul-24 00:51 068 4 gusting 5 29.4
2016-Jul-24 00:41 068 2 gusting 5 29.4
2016-Jul-24 00:31 067 1 gusting 4 29.4
2016-Jul-24 00:21 068 1 gusting 4 29.4
2016-Jul-24 00:11 086 29.4
2016-Jul-24 00:01 105 29.4
2016-Jul-23 23:51 148 0 gusting 1 29.4
2016-Jul-23 23:41 045 1 gusting 4 29.4
2016-Jul-23 23:31 045 1 gusting 4 29.4
2016-Jul-23 23:21 061 2 gusting 4 29.4
2016-Jul-23 23:11 068 2 gusting 5 29.4
2016-Jul-23 23:01 056 2 gusting 5 29.4
2016-Jul-23 22:51 068 4 gusting 7 29.4
2016-Jul-23 22:41 079 2 gusting 7 29.4
2016-Jul-23 22:31 089 2 gusting 4 29.4
2016-Jul-23 22:21 056 2 gusting 4 29.4
2016-Jul-23 22:11 29.4
2016-Jul-23 22:01 068 4 gusting 6 29.4
2016-Jul-23 21:51 034 4 gusting 6 29.4
2016-Jul-23 21:41 068 4 gusting 6 29.4
2016-Jul-23 21:31 067 2 gusting 7 29.4
2016-Jul-23 21:21 055 2 gusting 6 29.4
2016-Jul-23 21:11 068 2 gusting 5 29.4
2016-Jul-23 21:01 057 2 gusting 5 29.4
2016-Jul-23 20:51 068 2 gusting 5 29.4
2016-Jul-23 20:41 225 2 gusting 5 29.4
2016-Jul-23 20:31 056 2 gusting 6 29.4
2016-Jul-23 20:21 090 1 gusting 2 29.4
2016-Jul-23 20:11 037 1 gusting 5 29.4
2016-Jul-23 20:01 326 1 gusting 4 29.4
2016-Jul-23 19:51 327 1 gusting 6 29.4
2016-Jul-23 19:41 327 1 gusting 5 29.4
2016-Jul-23 19:31 012 1 gusting 2 29.4
2016-Jul-23 19:21 359 2 gusting 11 29.4
2016-Jul-23 19:11 007 2 gusting 6 29.4
2016-Jul-23 19:01 352 2 gusting 6 29.4
2016-Jul-23 18:51 315 4 gusting 7 29.4
2016-Jul-23 18:41 315 3 gusting 5 29.4
2016-Jul-23 18:31 066 4 gusting 6 29.4
2016-Jul-23 18:21 021 4 gusting 6 29.4
2016-Jul-23 18:11 034 4 gusting 6 29.4
2016-Jul-23 18:01 316 1 gusting 4 29.4
2016-Jul-23 17:51 356 3 gusting 8 29.4
2016-Jul-23 17:41 034 4 gusting 8 29.4
2016-Jul-23 17:31 326 4 gusting 7 29.4
2016-Jul-23 17:21 345 4 gusting 6 29.4
2016-Jul-23 17:11 292 4 gusting 7 29.4
2016-Jul-23 17:01 304 5 gusting 8 29.4
2016-Jul-23 16:51 329 5 gusting 7 29.4
2016-Jul-23 16:41 012 4 gusting 7 29.4
2016-Jul-23 16:31 29.4
2016-Jul-23 16:11 326 4 gusting 7 29.4
2016-Jul-23 16:01 303 2 gusting 6 29.4
2016-Jul-23 15:51 061 5 gusting 10 29.4
2016-Jul-23 15:41 011 5 gusting 8 29.4
2016-Jul-23 15:31 057 4 gusting 7 29.4
2016-Jul-23 15:21 326 2 gusting 6 29.4
2016-Jul-23 15:11 080 2 gusting 6 29.4
2016-Jul-23 15:01 123 1 gusting 5 29.4
2016-Jul-23 14:51 246 1 gusting 5 29.4
2016-Jul-23 14:41 158 1 gusting 6 29.4
2016-Jul-23 14:31 169 1 gusting 6 29.4
2016-Jul-23 14:21 237 2 gusting 6 29.4
2016-Jul-23 14:11 225 2 gusting 6 29.4
2016-Jul-23 14:01 123 2 gusting 6 29.4
2016-Jul-23 13:51 077 2 gusting 7 29.4
2016-Jul-23 13:41 159 2 gusting 6 29.4
2016-Jul-23 13:31 147 2 gusting 6 29.4
2016-Jul-23 13:21 111 2 gusting 5 29.4
2016-Jul-23 13:11 122 2 gusting 6 29.4
2016-Jul-23 13:01 180 2 gusting 6 29.4
2016-Jul-23 12:51 158 2 gusting 6 29.4
2016-Jul-23 12:41 135 2 gusting 6 29.4
2016-Jul-23 12:31 171 3 gusting 6 29.4
2016-Jul-23 12:21 135 2 gusting 6 29.4
2016-Jul-23 12:11 169 2 gusting 7 29.4
2016-Jul-23 12:01 145 2 gusting 5 29.4
2016-Jul-23 11:51 29.4
2016-Jul-23 11:41 135 1 gusting 4 29.4
2016-Jul-23 11:31 124 2 gusting 5 29.4
2016-Jul-23 11:21 158 4 gusting 6 29.4
2016-Jul-23 11:11 147 3 gusting 6 29.4
2016-Jul-23 11:01 158 4 gusting 6 29.4
2016-Jul-23 10:51 168 4 gusting 7 29.4
2016-Jul-23 10:41 146 4 gusting 7 29.4
2016-Jul-23 10:31 202 2 gusting 6 29.4
2016-Jul-23 10:21 146 2 gusting 5 29.4
2016-Jul-23 10:11 204 2 gusting 5 29.4
2016-Jul-23 10:01 159 1 gusting 5 29.4
2016-Jul-23 09:51 170 0 gusting 2 29.4
2016-Jul-23 09:41 158 0 gusting 4 29.4
2016-Jul-23 09:31 290 0 gusting 1 29.4
2016-Jul-23 09:21 190 1 gusting 2 29.4
2016-Jul-23 09:11 187 0 gusting 1 29.4
2016-Jul-23 09:01 150 29.4
2016-Jul-23 08:51 092 29.4
2016-Jul-23 08:41 180 0 29.4
2016-Jul-23 08:31 090 29.4
2016-Jul-23 08:21 072 29.4
2016-Jul-23 08:11 047 29.4
2016-Jul-23 08:01 123 0 gusting 1 29.4
2016-Jul-23 07:51 102 0 gusting 1 29.4
2016-Jul-23 07:41 280 1 gusting 2 29.4
2016-Jul-23 07:31 213 0 gusting 1 29.4
2016-Jul-23 07:21 316 29.4
2016-Jul-23 07:11 238 0 gusting 1 29.4
2016-Jul-23 07:01 199 29.4
2016-Jul-23 06:51 248 29.4
2016-Jul-23 06:41 237 29.4
2016-Jul-23 06:31 245 29.4
2016-Jul-23 06:21 165 29.4
2016-Jul-23 06:11 225 0 gusting 1 29.4
2016-Jul-23 06:01 232 1 gusting 2 29.4
2016-Jul-23 05:51 225 0 gusting 2 29.4
2016-Jul-23 05:41 252 0 gusting 1 29.4
2016-Jul-23 05:31 242 29.4
2016-Jul-23 05:21 307 29.4
2016-Jul-23 05:11 248 29.4
2016-Jul-23 05:01 164 29.4
2016-Jul-23 04:51 355 29.4
2016-Jul-23 04:41 292 29.4
2016-Jul-23 04:31 045 29.4
2016-Jul-23 04:21 016 29.4
2016-Jul-23 04:11 228 29.4
2016-Jul-23 04:01 197 29.4
2016-Jul-23 03:51 160 29.4
2016-Jul-23 03:41 148 29.4
2016-Jul-23 03:31 106 0 gusting 2 29.4
2016-Jul-23 03:21 036 29.4
2016-Jul-23 03:11 330 29.4
2016-Jul-23 03:01 046 29.4
2016-Jul-23 02:51 045 29.4
2016-Jul-23 02:41 270 29.4
2016-Jul-23 02:31 300 29.4
2016-Jul-23 02:21 262 29.4
2016-Jul-23 02:11 270 29.4
2016-Jul-23 02:01 278 29.4
2016-Jul-23 01:51 248 29.4
2016-Jul-23 01:41 240 29.4
2016-Jul-23 01:31 262 29.4
2016-Jul-23 01:21 239 29.4
2016-Jul-23 01:11 186 29.4
2016-Jul-23 01:01 090 29.4
2016-Jul-23 00:51 112 29.4
2016-Jul-23 00:41 082 29.4
2016-Jul-23 00:31 071 29.4
2016-Jul-23 00:21 033 29.4
2016-Jul-23 00:11 292 29.4
2016-Jul-23 00:01 315 29.4